RH
29 31 35 37 37 37 38 36 32 30 28 23 18 17 15 13 12 14 15 17 24 31 35 33 36 46 60 78 89 96 97 99 95 78 68 47 46 68 86 76 72 59 66
30 35 38 38 39 40 40 37 33 31 28 21 18 16 14 13 13 15 16 21 28 34 36 33 37 47 56 79 88 97 98 99 98 77 71 53 55 88 91 74 81 64 68
34 37 38 39 41 42 41 38 34 32 27 20 18 16 14 13 14 14 17 23 34 38 38 34 39 46 56 77 95 95 98 99 84 83 66 56 85 92 89 79 81 82 71
37 38 39 41 42 43 42 38 35 32 24 21 18 16 14 13 13 14 19 29 38 44 41 36 41 50 58 81 97 98 98 98 95 78 91 61 84 85 76 88 88 78 71
39 39 41 42 44 45 43 38 35 30 24 21 19 16 13 12 13 15 26 37 43 48 44 38 43 51 63 92 98 98 98 91 98 85 96 96 94 94 80 85 93 88 86
40 41 43 45 46 46 44 39 35 28 24 22 18 16 13 13 14 21 34 40 46 47 44 38 44 49 63 95 99 99 99 99 99 96 95 97 87 90 81 89 92 88 83
42 44 45 47 48 47 44 39 32 27 25 21 17 15 14 14 17 27 39 42 47 44 40 35 45 51 66 89 95 93 99 97 96 89 89 87 92 93 81 74 94 87 75
44 47 48 49 49 49 42 36 32 28 25 20 16 15 16 15 20 30 38 44 43 38 36 30 42 51 70 87 92 95 93 95 96 92 90 90 94 84 96 80 76 83 73
48 51 51 51 52 47 41 37 33 30 24 18 16 16 17 19 26 32 40 45 41 38 38 36 44 55 71 91 87 87 90 93 98 98 96 95 97 79 78 75 83 72 75
51 53 53 53 51 45 41 37 33 28 23 19 16 17 17 24 33 37 41 39 42 40 39 39 43 51 71 95 91 87 85 85 97 99 98 95 98 92 80 77 70 65 73
55 56 55 54 50 43 41 37 30 27 22 19 18 17 22 33 38 40 40 44 44 41 41 42 41 48 76 98 96 89 90 91 88 92 98 94 92 90 84 79 69 68 71
59 60 59 54 46 43 41 35 30 26 21 19 20 22 30 37 38 37 40 42 45 42 45 44 41 49 81 97 98 95 86 86 86 91 96 91 92 90 81 79 73 68 69
63 62 57 50 48 45 40 34 30 24 20 20 22 28 34 37 36 37 39 42 44 43 45 45 45 59 87 98 98 96 91 82 85 89 92 90 88 88 85 84 76 71 75
63 61 56 52 49 45 39 34 29 22 19 21 27 34 36 38 36 37 39 45 43 41 41 39 49 66 91 96 94 96 91 86 85 87 94 94 97 93 89 83 75 69 87
67 63 58 55 51 45 39 34 26 20 20 24 34 39 39 41 36 36 43 50 48 41 41 39 50 65 90 96 92 95 94 89 87 95 90 94 98 95 92 86 80 76 89
69 63 58 54 50 45 39 30 23 20 23 33 40 39 41 41 39 36 44 48 42 38 39 41 53 69 87 94 95 94 94 94 88 92 92 94 96 91 91 88 78 83 85
68 61 57 53 50 45 36 28 18 20 31 37 39 39 42 39 38 37 43 46 40 38 40 45 58 75 91 96 97 98 97 93 95 91 90 93 97 97 86 88 85 91 79
67 61 58 55 50 41 32 24 22 29 35 38 42 42 42 40 40 38 42 43 35 36 41 49 59 78 92 98 98 98 95 92 90 95 93 92 96 95 87 88 90 90 68
65 63 59 53 46 37 29 24 29 38 42 42 43 44 43 42 42 40 42 43 34 36 42 49 58 75 93 97 98 98 98 91 90 90 92 89 95 98 87 84 89 86 58
65 63 58 51 41 35 29 28 38 44 45 43 43 44 42 43 43 41 40 38 34 35 45 48 58 75 92 96 98 98 97 93 93 89 90 90 97 98 98 91 91 81 58
67 64 54 44 41 35 33 39 45 42 41 43 44 44 44 41 41 39 38 34 34 38 47 51 57 76 92 96 98 99 98 94 90 90 92 85 94 97 98 96 92 81 58
66 52 46 44 42 37 37 40 39 40 44 45 44 45 43 42 39 39 37 37 39 42 50 52 59 77 92 95 98 98 99 98 95 91 91 89 92 98 95 95 90 83 59
53 47 46 47 42 37 39 39 41 44 46 44 44 44 44 41 42 38 40 39 43 48 52 55 61 77 88 93 97 98 98 98 94 94 90 91 96 96 96 90 87 78 60
46 49 51 47 39 39 37 39 43 45 45 45 44 43 46 46 44 37 43 42 42 51 56 59 59 76 85 90 97 99 98 97 94 92 92 94 95 96 97 94 92 82 67
57 54 50 41 38 39 40 42 47 45 46 45 44 46 46 47 44 39 42 45 47 54 57 61 60 75 84 89 96 98 96 96 96 97 95 94 96 95 94 97 95 88 70
58 48 42 39 38 40 41 46 48 48 48 48 47 48 48 48 46 41 46 50 51 54 57 59 61 72 81 88 96 97 98 96 96 95 93 95 94 96 95 98 94 93 79